Regional Weather Roundup
Issued by NWS Wakefield, VA

Home | Current Version | Previous Version | Graphics & Text | Print | Product List | Glossary On
Versions: 1 2 3 4 5 6 7 8 9 10 11 12 13 14 15 16 17 18 19 20 21 22 23 24 25 26 27
000
ASUS41 KAKQ 231515
RWRAKQ

REGIONAL WEATHER ROUNDUP
NATIONAL WEATHER SERVICE WAKEFIELD VA
1100 AM EDT MON OCT 23 2017

Note: "fair" indicates few or no clouds below 12,000 feet with no
significant weather and/or obstructions to visibility. * = Denotes
station may not report precipitation (e.g., rain,snow,etc.),
thunder or fog.

VAZ042-051-052>054-056-231600-
NORTHERN VIRGINIA

CITY           SKY/WX    TMP DP  RH WIND       PRES   REMARKS
WASH NATIONAL  CLOUDY    68  65  90 SE3       30.19F
DULLES         CLOUDY    66  63  90 SE8       30.19F
FORT BELVOIR   CLOUDY    64  64 100 SE5       30.19F
QUANTICO       CLOUDY    65  64  97 CALM      30.19F
FREDERICKSBRG* PTSUNNY   64  64 100 SE5       30.17F
STAFFORD*      CLOUDY    64  64 100 SE5       30.22F FOG
WARRENTON      PTSUNNY   67  59  76 E6        30.17F
CULPEPER*      CLOUDY    62  61  95 SE3       30.18F
MANASSAS*      CLOUDY    65  62  90 SE7       30.19S
LEESBURG*      CLOUDY    63  63 100 S6        30.19F
WINCHESTER     CLOUDY    64  59  82 SE12G17   30.15F
FRONT ROYAL*   MOSUNNY   64  59  82 NE6       30.13F
LURAY*         CLOUDY    66  61  82 CALM      30.13F
$$

VAZ048-049-060>072-079>083-231600-
CENTRAL AND SOUTH CENTRAL VIRGINIA

CITY           SKY/WX    TMP DP  RH WIND       PRES   REMARKS
RICHMOND       CLOUDY    72  65  78 SE9       30.16F
CHESTERFIELD*  NOT AVBL
PETERSBURG*    MOSUNNY   71  65  81 E6        30.16F
HANOVER        MOSUNNY   70  64  81 SE5       30.18F
TAPPAHANNOCK*  MOSUNNY  N/A N/A N/A E5        30.19F
QUINTON*       FAIR      69  65  88 S6        30.17F
CHARLOTTSVILLE CLOUDY    68  60  75 CALM      30.16F
GORDONSVILLE*  CLOUDY    65  62  90 NE3       30.15F
ORANGE*        CLOUDY    64  59  82 SE6       30.16F
LOUISA*        CLOUDY    70  61  73 SE8       30.15F
BUMPASS*       FAIR      67  64  90 SE8       30.16F
FARMVILLE*     CLOUDY    72  64  75 SE6       30.13F
CREWE*         CLOUDY    69  65  88 SE12G17   30.15F
FORT PICKETT*  FAIR      70  65  82 SE9       30.15F
CHASE CITY*    CLOUDY    67  64  90 SE8       30.14F
CLARKSVILLE*   CLOUDY    68  63  83 E6        30.13F
SOUTH HILL*    CLOUDY    71  63  75 S8        30.20F
LAWRENCEVILLE* FAIR      73  62  69 SE9       30.15F
EMPORIA*       CLOUDY    72  63  73 E14       30.16F
$$

VAZ088>098-231600-
SOUTHEAST VIRGINIA

CITY           SKY/WX    TMP DP  RH WIND       PRES   REMARKS
NORFOLK        PTSUNNY   76  66  71 SE7       30.18F
VIRGINIA BEACH CLOUDY    76  63  64 SE10G18   30.17F
NORFOLK NAVAL  PTSUNNY   72  66  81 SE9       30.19F
WEST POINT*    PTSUNNY   70  70 100 E9        30.20F
SALUDA*        FAIR      70  67  90 SE6       30.19F
NEWPORT NEWS   CLOUDY    73  65  75 SE12      30.18F
LANGLEY AFB    MOSUNNY   73  70  91 SE8       30.18F
FORT EUSTIS    CLOUDY    75  65  72 SE10      30.16F
WILLIAMSBURG*  SUNNY     73  70  88 SE7       30.19F
HR EXEC AP*    NOT AVBL
FRANKLIN*      SUNNY     74  64  70 SE9       30.17F
US460-WAKEFLD  SUNNY     74  65  73 E10       30.17F
$$

VAZ020-022-025-037-045-231600-
WEST CENTRAL AND SOUTHWEST VIRGINIA

CITY           SKY/WX    TMP DP  RH WIND       PRES   REMARKS
STAUNTON*      CLOUDY    67  57  70 SE8       30.16F
WAYNESBORO*    PTSUNNY   65  58  80 SE7G20    30.15F
HOT SPRINGS VA RAIN      55  55 100 E13G23    30.14F VSB<1/4
LYNCHBURG      LGT RAIN  63  60  90 SE12G21   30.13F FOG
DANVILLE       CLOUDY    64  64 100 VRB6      30.11F
SOUTH BOSTON*  CLOUDY    66  64  94 SE6       30.13F
MARTINSVILLE   RAIN      62  61  97 SE6       30.10F
ROANOKE        RAIN      61  61 100 SE8       30.11F FOG
BLACKSBURG     LGT RAIN  60  60  98 E13       30.10F
DUBLIN*        LGT RAIN  62  61  96 E14G22    30.07F
MARION*        CLOUDY    63  60  88 E9G18     30.04F
HILLSVILLE*    RAIN      60  56  87 SE8       30.04F
RICHLANDS*     CLOUDY    63  53  68 SE13G25   29.96F
WISE*          HVY RAIN  61  61 100 S6        29.95F
ABINGDON*      CLOUDY    67  62  85 SE6       29.93F
$$

MDZ021>025-VAZ099-100-231600-
SOUTHERN MARYLAND AND THE DELMARVA PENINSULA

CITY           SKY/WX    TMP DP  RH WIND       PRES   REMARKS
PATUXENT RIVER CLOUDY    70  67  90 SE10      30.19F
BAY BRIDGE APT PTSUNNY   70  64  83 S7        30.20F
LEONARDTOWN    NOT AVBL
DOVER          PTSUNNY   70  66  88 SE10      30.22F
GEORGETOWN     CLOUDY    74  66  76 S10       30.23F
EASTON         PTSUNNY   72  66  83 SE9       30.24F
CAMBRIDGE      MOSUNNY   72  66  83 VRB7      30.21F
SALISBURY      CLOUDY    74  68  81 SE12      30.21F
OCEAN CITY     CLOUDY    71  67  87 S8        30.23F
WALLOPS ISLAND CLOUDY    74  68  81 SE12      30.22F
ACCOMACK*      MOSUNNY   74  66  77 SE6       30.20F
$$

NCZ012>017-030>032-231600-
NORTH CENTRAL AND EASTERN NORTH CAROLINA

CITY           SKY/WX    TMP DP  RH WIND       PRES   REMARKS
ROANOKE RAPIDS FAIR      68  63  83 SE6       30.16F
RALEIGH        DRIZZLE   66  65  96 SE7       30.13F
ELIZABETH CITY SUNNY     78  64  61 SE10      30.19F
AHOSKIE*       MOSUNNY   73  65  77 SE5       30.17F
EDENTON*       SUNNY     77  66  67 SE8       30.18F
CURRITUCK*     SUNNY     76  65  69 S5        30.20F
KILL DEVIL HLS SUNNY     77  63  61 SE9       30.19F
MANTEO         SUNNY    N/A N/A N/A S12G18    30.20F
CAPE HATTERAS  SUNNY     80  69  69 SE12      30.19F
TARBORO*       NOT AVBL
GOLDSBORO      SUNNY     78  65  64 SE15G21   30.11F
WASHINGTON     SUNNY     76  65  67 SE10      30.17F
GREENVILLE     MOSUNNY   77  64  65 SE7       30.16F
NEW BERN       MOSUNNY   77  67  71 SE8       30.16F
WILMINGTON     PTSUNNY   78  65  63 S13G26    30.13F
$$

VAZ048-231600-
ELSEWHERE

CITY           SKY/WX    TMP DP  RH WIND       PRES   REMARKS
HARRISBURG PA  CLOUDY    64  61  90 SE7       30.20F
BALTIMORE      CLOUDY    68  65  90 SE8       30.19F
ANNAPOLIS      PTSUNNY   67  67 100 E7        30.20F
ANDREWS AFB    PTSUNNY   66  66 100 SE8       30.18F
PHILADELPHIA   CLOUDY    71  63  75 SE9       30.23F
HENDERSON NC   PTSUNNY   65  58  78 SE7       30.14F
GREENSBORO     CLOUDY    66  66 100 SE14G22   30.05F
ROCKY MOUNT    MOSUNNY   75  64  68 SE8       30.14F
$$

VAZ100-231600-
MARINE

STATION/POSITION TIME  TEMP    WIND        PRES    WAVE   SWELL
                       AIR SEA DIR/SP/G            HT/PER HT/PER
                 (UTC) (F)     (DEG/KT/KT) (MB)    (FT/S) (FT/S)
BRANDYWINE LGT   1442   69     150/ 16/ 17 1024.0F
CAPE MAY NJ      1442   69 67  130/  9/ 15 1023.3F
LEWES DE         1442   70 67  170/ 10/ 13 1023.5F
15NM E FENWICK I 1450   69 68  120/ 14/ 16 1024.1F   3/10   2/10
OCEAN-CITY-INLET 1442   70 67  160/  9/ 13 1024.2F
WACHAPREAGUE VA  1442   71 68  130/  7/  8 1022.9F
THOMAS POINT MD  1500   67 68  160/  4/  4   N/A
GOOSES REEF MD   1500   69 69  160/  6/  8 1026.8    1/ 2
COVE POINT MD    1442   68     160/ 12/ 15 1023.2F
SOLOMONS ISLAND  1442   69 69  130/ 11/ 12 1021.9F
BISHOPS HEAD MD  1442   69 67  120/  7/  8 1023.1F
PINEY POINT MD   1436          150/ 12/ 13   N/A
POTOMAC MD       1500   70 69  140/  8/ 10 1021.6    1/ 2
CAMBRIDGE MD     1442   72 67              1023.6F
LEWISETTA VA     1442   71 67  140/  7/  8 1022.1F
RAPPAHANNOCK LGT 1442          100/ 10/ 11 1022.9F
STINGRAY PT      1500   70 69  150/ 10/ 12 1022.5    2/ 2
YORK RVR RNG VA  1442   71     140/ 12/ 14 1022.6F
YORKTOWN VA      1442   72 70  140/  9/ 12 1021.9F
JAMESTOWN VA     1500      70  140/  8/ 10   N/A     1
DOMINION TERM VA 1442   71     130/  7/  9 1022.4F
KIPTOPEKE VA     1442      69  130/  9/ 12   N/A
CAPE HENRY VA    1442   71     130/ 10/ 13   N/A
WILLOUBY STN VA  1442   72     130/  9/ 11 1022.0F
S CRANEY ISL VA  1442   73     150/  8/ 11 1021.8F
CAPE HENRY BUOY  1500      70                N/A     2/ 9
1ST LANDING BUOY 1500   70 69              1022.0    1/ 3
CAPE CHARLES BUO 1451      70                N/A     2/ 8
64NM E OF VA BCH 1450   72 69  160/ 10/ 14 1023.7F   3/ 8   3/ 8
DUCK PIER NC     1442   72 70  140/  9/ 10 1022.2F
44100 DUCK FRF   1455      71                N/A     3/25   2/25
44056 DUCK FRF   1500      71                N/A     3/ 8
OREGON INLET NC  1442   76 71  120/  8/ 11 1022.5F
HATTERAS NC      1442   77 73  140/ 10/ 12 1022.3F
DIAMOND SHLS NC  1450   78 81  130/ 14/ 16 1022.1F   3/ 8   2/ 8
CAPE LOOKOUT NC  1500   75     150/  8/  9 1021.1F
$$




USA.gov is the U.S. government's official web portal to all federal, state and local government web resources and services.